Back to catalog

DELTA 1 DEB

AliveUNKNOWN
NORAD 10649·DEBRIS·🇺🇸 United States

Launched Jul 29, 1976 from Vandenberg Space Force Base

Loading…

Next Passes (next 24 hours)

TLE

FreshSource: Space-Track

Epoch: Sep 14, 2026, 05:22 UTC

1 10649U 76077K   26257.22408816 -.00000060  00000-0 -25653-3 0  9992
2 10649 102.2885 174.2953 0376931 308.2718 213.5434 11.80282826146817

Track DELTA 1 DEB in real time with AllMySat

Download on the App Store